Wind_Speed
12 12 13 14 13 11 11 11 11 10 10 11 12 14 17 19 20 20 19 18 18 17 17 18 19 19 18 17 17 16 15 15 14 12 11 11 11 11 10 9 8 8 7
12 12 13 14 14 13 12 12 11 10 10 10 11 12 15 17 19 18 17 16 16 16 16 17 18 20 20 19 19 18 17 16 15 14 13 13 12 11 10 9 9 9 8
12 13 13 14 14 14 13 13 12 11 10 10 10 11 13 16 18 18 18 16 15 15 15 16 17 19 20 20 20 19 18 17 16 15 14 13 12 11 10 9 9 9 9
13 13 14 15 15 15 14 14 13 12 11 10 10 10 12 14 16 17 17 18 17 17 16 16 17 18 19 19 19 19 18 17 17 16 14 13 11 10 10 10 9 9 8
13 14 15 15 16 15 15 14 14 13 12 11 11 10 11 13 14 15 16 17 19 19 18 17 16 17 17 17 17 17 17 17 16 15 13 11 10 10 9 10 9 9 8
14 14 14 16 16 16 16 16 16 15 14 12 11 10 10 10 12 13 14 16 18 19 20 19 17 16 16 15 15 14 14 14 13 12 11 11 9 8 8 8 9 9 8
16 15 14 15 16 17 17 17 18 17 16 14 12 11 9 8 9 10 12 15 17 19 20 20 19 17 16 15 14 13 13 12 11 10 10 10 10 8 8 7 7 8 8
19 18 16 16 16 18 19 20 20 19 18 17 15 13 11 9 8 8 10 13 15 17 19 20 20 19 18 17 16 15 14 13 12 11 12 12 11 10 9 8 8 8 7
22 21 19 19 19 20 21 23 22 22 21 20 18 16 13 12 11 10 9 10 12 15 17 19 20 20 20 19 18 18 17 16 15 15 15 15 15 14 12 11 10 10 10
25 24 23 22 23 23 24 26 26 26 24 23 21 19 17 15 13 12 11 10 10 12 14 16 17 18 19 19 19 19 19 20 19 19 19 19 19 18 16 14 13 12 12
28 26 25 25 26 28 28 28 29 29 28 26 24 22 20 19 17 14 13 13 13 13 13 13 15 16 17 17 17 18 18 19 20 20 20 21 22 21 19 17 16 15 14
28 27 27 27 27 28 30 31 30 30 31 29 27 25 23 22 19 17 16 15 15 15 15 15 14 15 15 15 16 16 17 17 18 19 19 20 22 22 21 20 19 18 17
26 26 26 27 27 28 30 30 31 32 33 33 30 28 26 25 23 20 19 17 17 17 17 18 17 17 16 16 16 16 17 17 17 18 19 20 21 22 23 22 21 20 19
22 22 23 24 24 24 26 28 31 34 34 35 34 32 30 29 27 24 22 20 18 18 18 19 20 20 19 19 18 18 18 18 18 18 18 19 20 21 22 22 22 22 21
18 18 19 20 21 22 22 24 29 32 35 35 35 35 33 32 31 28 26 23 21 19 19 19 20 21 21 21 20 20 20 20 19 19 19 19 19 20 21 21 22 22 22
17 17 17 18 19 21 22 23 27 31 34 36 36 36 35 34 32 31 29 27 25 24 22 21 20 21 21 21 21 20 21 21 21 20 20 20 21 21 21 21 22 22 22
16 17 17 17 18 19 20 21 23 28 32 34 35 36 36 35 33 33 31 30 29 28 26 25 24 23 23 22 22 21 20 21 21 21 21 21 21 21 22 21 21 21 22
17 18 18 18 18 19 20 20 21 23 28 32 33 33 34 34 32 33 33 32 32 31 30 28 27 26 25 25 25 24 23 23 23 23 23 22 22 22 21 21 20 21 22
19 19 19 19 19 20 21 21 21 22 25 29 32 32 32 33 33 34 35 34 34 34 33 33 31 29 28 27 27 27 26 25 25 25 24 23 22 22 21 20 20 21 22
22 21 21 20 20 21 23 23 24 24 25 27 30 32 33 34 35 35 35 35 35 35 34 34 34 33 31 29 28 28 27 26 26 26 25 24 23 22 21 20 21 21 21
24 23 23 22 22 23 23 24 25 25 26 28 30 31 32 33 35 35 35 36 36 36 36 36 36 36 35 33 32 30 28 27 27 26 26 25 24 23 22 21 21 21 21
25 25 25 24 24 24 24 24 24 25 26 27 28 30 31 32 33 34 35 36 36 36 36 36 36 37 36 36 35 32 30 28 28 27 27 25 25 24 23 23 22 22 21
25 25 26 26 25 25 24 25 24 25 26 26 27 27 28 29 31 32 34 35 35 35 35 35 34 35 36 36 35 32 30 28 27 27 27 25 25 24 24 24 23 22 22
24 25 26 26 26 26 25 25 25 25 26 26 26 26 26 26 26 29 31 32 32 32 33 34 34 35 35 35 33 30 29 29 29 28 27 25 25 25 25 24 24 23 22
23 24 25 26 26 26 26 26 26 26 26 25 25 25 25 25 25 25 27 29 31 31 32 33 35 35 35 35 33 31 31 31 31 29 27 26 25 24 24 24 24 23 23
24 25 25 25 26 26 25 25 26 27 26 25 25 25 24 24 24 25 26 28 30 31 31 32 34 35 34 33 33 32 32 33 33 31 28 27 26 25 24 24 23 23 22
Wind_Direction
278 260 251 250 254 253 243 236 234 234 236 236 234 234 232 231 232 235 238 242 243 240 233 224 218 215 212 208 205 204 207 210 217 229 244 257 261 260 252 245 243 243 249
280 263 250 247 250 250 243 235 231 231 233 232 235 235 231 229 229 230 233 235 234 231 226 221 218 216 215 213 212 214 217 223 231 242 252 259 258 253 247 243 240 239 243
278 268 255 247 247 247 243 237 230 227 226 229 237 238 234 229 228 230 231 229 225 222 220 219 218 216 215 215 217 221 226 234 242 250 255 257 252 245 242 239 236 234 239
274 268 259 251 247 245 243 238 231 222 221 228 238 243 238 231 228 230 230 225 220 218 219 219 217 215 215 217 220 224 230 237 245 251 253 249 243 239 238 234 231 230 234
272 266 259 252 247 243 241 238 230 223 223 228 236 243 240 231 226 226 224 221 217 216 216 217 215 215 216 219 223 227 232 237 242 244 242 237 234 234 233 231 230 231 236
272 263 260 253 246 243 242 237 230 226 226 227 232 239 237 223 219 218 217 215 214 213 212 212 211 212 214 217 221 226 229 232 232 230 228 226 225 225 228 231 234 238 245
270 262 258 253 251 247 244 238 232 228 229 226 227 231 230 219 213 214 214 214 215 214 212 210 209 210 212 214 217 220 221 221 221 222 221 217 216 222 232 239 243 247 252
266 261 259 258 255 251 246 239 234 230 229 224 222 226 229 226 219 216 216 216 217 218 218 216 214 213 214 215 218 220 221 222 224 226 224 222 224 230 238 243 245 247 249
262 259 257 257 255 254 250 242 236 233 231 225 222 221 226 227 225 223 222 220 220 220 221 223 223 223 223 224 225 227 229 231 234 236 235 234 236 240 245 246 245 244 245
256 256 254 257 257 256 256 249 241 236 231 226 223 223 225 226 226 227 227 227 226 224 224 225 227 229 230 231 232 233 235 237 240 242 242 242 242 244 248 250 250 247 247
254 252 252 254 256 256 256 252 246 238 230 226 224 224 226 227 227 228 231 234 235 233 230 229 229 229 230 231 233 235 236 239 242 244 245 244 244 245 248 252 253 252 252
255 253 252 253 256 256 255 251 246 238 230 227 225 224 226 229 230 231 234 238 241 242 241 237 233 231 232 233 235 237 240 242 244 245 246 246 245 245 248 251 253 255 256
256 254 255 255 256 255 254 251 245 242 232 226 225 225 227 230 233 236 239 243 246 248 247 245 241 238 237 238 240 242 244 245 247 247 246 246 245 246 248 250 253 255 257
256 255 256 256 256 257 254 251 245 241 234 229 227 227 228 231 236 239 241 243 246 248 248 246 245 242 242 243 244 245 246 247 247 247 245 245 245 246 247 249 252 255 258
255 255 256 255 255 253 254 254 248 243 237 232 232 230 229 232 236 239 241 241 244 246 243 242 244 245 244 245 246 246 246 246 246 246 245 246 247 248 249 250 253 257 260
256 254 253 256 257 255 256 256 249 245 239 236 236 232 230 233 236 238 239 241 243 245 244 243 244 247 247 246 246 246 246 245 244 245 246 247 249 251 252 253 255 258 260
261 258 256 256 256 255 256 258 252 246 242 239 236 234 232 234 237 237 238 240 242 243 246 247 247 248 249 248 246 246 246 245 246 247 248 250 251 253 254 255 256 258 260
267 264 261 256 254 254 256 254 252 246 242 238 237 234 233 235 237 239 241 241 242 243 245 249 250 250 250 249 249 248 249 249 250 251 252 252 254 254 254 255 257 259 262
268 266 264 259 255 254 253 252 250 246 243 239 237 236 236 236 238 241 241 242 243 245 245 247 250 251 249 249 250 251 252 252 254 255 254 254 254 254 253 255 258 261 264
267 265 264 260 256 253 251 250 250 250 245 241 240 240 240 241 242 243 242 243 244 246 247 247 249 250 248 248 250 252 252 253 255 255 254 254 254 254 255 258 261 264 268
264 262 261 259 256 254 252 251 251 250 248 246 244 243 244 244 243 242 242 243 245 248 249 249 249 249 248 247 249 251 252 253 254 254 254 254 254 254 257 262 265 268 270
261 259 258 257 255 254 253 253 252 249 248 247 246 245 247 248 244 242 243 245 247 249 249 250 249 248 246 246 248 250 251 251 252 254 254 254 253 256 259 263 266 269 269
260 258 256 255 254 252 252 252 251 249 248 248 248 248 248 248 245 243 243 245 247 248 248 247 246 245 244 245 245 247 247 247 248 250 251 253 255 258 261 263 265 266 267
259 256 255 254 253 252 252 252 250 248 247 247 249 249 249 249 247 245 244 244 244 246 246 245 243 243 244 243 243 243 242 242 245 247 250 253 258 261 264 264 264 264 265
260 256 254 253 252 250 250 250 250 248 247 248 249 249 250 250 250 248 246 245 245 247 248 246 243 241 242 240 238 238 238 241 245 247 249 254 259 263 265 264 264 264 265
262 258 255 253 252 251 250 250 248 247 247 248 249 248 248 247 247 248 248 248 249 249 247 246 243 240 238 236 235 235 237 241 243 245 249 253 258 262 264 265 263 262 263
Height
5858 5857 5856 5857 5857 5858 5859 5859 5860 5861 5861 5862 5863 5864 5865 5866 5867 5868 5869 5870 5871 5872 5873 5875 5877 5879 5881 5884 5886 5887 5889 5890 5892 5893 5894 5895 5895 5895 5896 5896 5896 5896 5896
5855 5854 5854 5854 5855 5855 5856 5857 5858 5859 5859 5860 5860 5861 5861 5862 5864 5865 5866 5867 5868 5869 5870 5872 5874 5876 5879 5882 5884 5886 5887 5889 5890 5892 5893 5893 5893 5894 5894 5895 5895 5895 5895
5852 5852 5851 5851 5852 5853 5854 5855 5856 5856 5857 5858 5858 5859 5859 5860 5861 5862 5863 5864 5865 5867 5868 5870 5872 5874 5877 5879 5882 5884 5886 5887 5889 5890 5890 5891 5891 5892 5892 5893 5894 5894 5894
5849 5849 5848 5848 5849 5850 5851 5852 5854 5855 5855 5856 5856 5857 5857 5857 5858 5859 5860 5862 5863 5865 5866 5868 5870 5872 5874 5877 5879 5881 5883 5885 5886 5887 5888 5889 5889 5890 5891 5892 5892 5893 5893
5846 5846 5845 5845 5846 5847 5848 5850 5851 5852 5853 5854 5854 5855 5855 5855 5856 5857 5858 5859 5861 5862 5864 5866 5868 5870 5872 5874 5876 5878 5880 5882 5883 5884 5885 5886 5887 5888 5889 5890 5891 5892 5892
5843 5843 5842 5842 5843 5844 5845 5846 5848 5850 5851 5851 5852 5853 5853 5853 5854 5854 5855 5856 5858 5859 5861 5864 5866 5868 5869 5871 5874 5876 5878 5879 5881 5882 5883 5884 5885 5887 5888 5889 5890 5891 5891
5839 5839 5839 5839 5840 5840 5841 5843 5844 5846 5847 5849 5850 5851 5852 5852 5852 5853 5853 5854 5856 5857 5859 5861 5863 5865 5867 5869 5871 5873 5875 5877 5878 5880 5881 5882 5884 5885 5886 5887 5888 5889 5889
5835 5835 5836 5836 5836 5837 5837 5838 5840 5842 5844 5845 5847 5848 5850 5851 5851 5851 5852 5853 5854 5855 5857 5859 5860 5862 5865 5867 5869 5871 5873 5875 5876 5878 5879 5880 5882 5883 5884 5885 5886 5887 5888
5830 5830 5831 5831 5832 5832 5833 5834 5836 5838 5840 5842 5844 5846 5847 5849 5850 5850 5851 5852 5853 5854 5855 5857 5858 5860 5862 5864 5866 5868 5870 5872 5874 5875 5877 5878 5879 5881 5882 5883 5884 5885 5886
5825 5824 5824 5825 5826 5827 5828 5829 5831 5833 5836 5838 5840 5842 5844 5846 5848 5849 5850 5850 5851 5852 5853 5855 5856 5858 5860 5861 5863 5865 5867 5869 5871 5872 5874 5875 5877 5878 5879 5881 5882 5882 5883
5818 5818 5819 5819 5820 5821 5822 5823 5825 5828 5830 5833 5835 5837 5839 5842 5844 5846 5848 5848 5849 5850 5851 5852 5854 5855 5857 5858 5860 5862 5863 5865 5867 5868 5870 5872 5873 5875 5876 5877 5878 5879 5880
5811 5812 5812 5813 5813 5814 5815 5816 5818 5821 5824 5827 5830 5832 5835 5837 5840 5842 5844 5845 5847 5848 5849 5850 5851 5852 5854 5855 5857 5858 5860 5861 5862 5864 5865 5867 5869 5870 5872 5873 5874 5876 5876
5804 5805 5806 5806 5806 5807 5807 5808 5811 5814 5817 5820 5824 5826 5829 5832 5834 5837 5840 5842 5844 5845 5846 5847 5848 5849 5850 5852 5853 5854 5856 5857 5858 5860 5861 5863 5864 5866 5867 5869 5870 5871 5872
5798 5799 5799 5800 5800 5800 5800 5800 5803 5806 5810 5813 5817 5820 5824 5826 5829 5832 5835 5838 5840 5841 5842 5843 5844 5846 5847 5848 5849 5851 5852 5853 5855 5856 5857 5859 5860 5861 5863 5864 5865 5866 5867
5793 5793 5793 5794 5793 5794 5794 5795 5796 5799 5803 5806 5810 5814 5817 5820 5824 5827 5830 5833 5835 5836 5838 5839 5840 5841 5843 5844 5845 5846 5848 5849 5851 5852 5853 5854 5855 5857 5858 5859 5860 5861 5862
5788 5788 5789 5789 5789 5789 5789 5790 5790 5792 5796 5800 5803 5807 5811 5814 5818 5821 5824 5827 5829 5831 5833 5835 5836 5837 5839 5840 5841 5842 5843 5845 5846 5848 5849 5850 5850 5851 5852 5853 5854 5855 5856
5783 5784 5784 5784 5784 5784 5784 5784 5785 5786 5789 5792 5796 5800 5804 5808 5811 5814 5817 5820 5823 5825 5827 5829 5831 5833 5834 5835 5836 5837 5839 5840 5842 5843 5844 5845 5845 5846 5847 5847 5848 5849 5850
5779 5779 5779 5779 5779 5780 5780 5780 5780 5781 5783 5786 5789 5793 5797 5801 5804 5807 5810 5813 5816 5819 5821 5823 5825 5827 5829 5830 5831 5832 5833 5835 5837 5838 5838 5839 5840 5840 5841 5842 5842 5843 5844
5773 5773 5773 5773 5774 5774 5774 5775 5776 5777 5778 5780 5783 5786 5790 5793 5797 5800 5803 5806 5809 5811 5814 5816 5818 5821 5823 5824 5825 5826 5827 5829 5831 5832 5832 5833 5834 5835 5835 5836 5836 5837 5837
5767 5767 5767 5767 5768 5768 5768 5769 5770 5771 5772 5774 5777 5779 5782 5785 5789 5792 5795 5798 5801 5803 5806 5809 5811 5813 5816 5818 5819 5819 5821 5822 5824 5825 5826 5827 5828 5828 5829 5830 5830 5831 5831
5760 5760 5761 5761 5761 5762 5762 5763 5764 5765 5767 5768 5770 5772 5775 5777 5780 5783 5787 5790 5792 5795 5798 5800 5803 5805 5808 5810 5811 5812 5814 5816 5817 5819 5820 5821 5822 5823 5823 5824 5824 5824 5825
5753 5753 5754 5754 5755 5755 5756 5757 5758 5759 5760 5762 5763 5765 5767 5769 5772 5775 5778 5781 5784 5787 5789 5792 5794 5797 5800 5802 5804 5806 5808 5809 5811 5812 5814 5815 5816 5817 5817 5818 5818 5818 5819
5746 5746 5746 5747 5748 5749 5750 5750 5751 5752 5754 5755 5756 5758 5760 5762 5764 5767 5769 5772 5775 5777 5780 5783 5785 5788 5790 5793 5795 5798 5800 5802 5804 5805 5806 5808 5809 5810 5811 5811 5812 5812 5813
5739 5739 5739 5740 5741 5741 5743 5743 5744 5745 5747 5748 5750 5751 5753 5755 5757 5759 5761 5764 5766 5769 5771 5774 5777 5780 5782 5785 5788 5791 5793 5795 5796 5798 5799 5801 5802 5803 5804 5805 5805 5806 5807
5731 5731 5731 5732 5733 5734 5735 5736 5737 5738 5740 5742 5743 5745 5746 5748 5750 5752 5754 5756 5758 5761 5763 5766 5768 5771 5773 5776 5780 5783 5786 5787 5789 5791 5793 5795 5796 5796 5797 5798 5798 5799 5800
5723 5723 5723 5724 5725 5726 5727 5728 5730 5731 5733 5735 5736 5738 5740 5741 5743 5745 5747 5749 5751 5752 5755 5757 5759 5762 5765 5768 5771 5775 5777 5779 5781 5784 5786 5788 5789 5789 5790 5791 5792 5792 5793